Location: Austin
(30.3000°N, 97.7500°W)
Time: 10:16:34
(UTC-05:00)

Cosmos 2221 - Pass Details

Date: 26 May 2023
Orbit: 588 x 609 km, 82.5° (Epoch: 31 May)

Event Time Altitude Azimuth Distance (km) Brightness Sun altitude
Rises 20:48:05 0° 191° (S) 2,800 5.7 -5.3°
Reaches altitude 10° 20:50:17 10° 193° (SSW) 1,904 4.9 -5.7°
Maximum altitude 20:54:27 67° 276° (W) 639 2.9 -6.5°
Drops below altitude 10° 20:58:41 10° 360° (N) 1,922 5.5 -7.3°
Sets 21:00:54 0° 3° (N) 2,830 6.3 -7.7°
